SL-14 R/B

Last updated on Sun Aug 09 2026 00:02:09 GMT+0000 (Coordinated Universal Time)

1 21423U 91042B 26220.61741556 .00000187 00000+0 20519-4 0 9991 2 21423 82.4905 77.7228 0018523 100.8714 259.4585 14.81929876875570
UTC large
Height (km)
Speed (km/s)
/
Latitude / Longitude
Inclination (degrees)
Orbital Period (minutes)
Azimuth
Elevation
Range (km)
Doppler Factor

Next 0 passes for location: London (51.5072 / 0.1276)

No passes found over London.
SL-14 R/B